Regional Weather Roundup
Issued by NWS

Home | Current Version | Previous Version | Graphics & Text | Print | Product List | Glossary Off
Versions: 1 2 3 4 5 6 7 8 9 10 11 12 13 14 15 16 17 18 19 20 21 22 23 24 25 26 27 28 29 30 31 32 33 34 35 36 37 38 39 40 41 42 43 44 45 46 47 48 49 50

099
ASUS43 KDTX 230301
RWRMI
MICHIGAN HOURLY REGIONAL WEATHER ROUNDUP
NATIONAL WEATHER SERVICE DETROIT/PONTIAC MI
1100 PM EDT WED MAR 22 2017

NOTE: "FAIR" INDICATES FEW OR NO CLOUDS BELOW 12,000 FEET WITH NO
SIGNIFICANT WEATHER AND/OR OBSTRUCTION TO VISIBILITY.

MIZ047>049-052>055-059>063-066>070-074>076-081>083-230400-
SOUTHEAST LOWER MICHIGAN

CITY           SKY/WX    TMP DP  RH WIND       PRES   REMARKS
ADRIAN         CLEAR     27  18  69 SE6       30.54R WCI  20
ALMA           CLEAR     26  16  66 SE6       30.52F WCI  19
ANN ARBOR      CLOUDY    26  17  68 CALM      30.54R
BAD AXE        CLEAR     21  13  72 CALM      30.54S
CARO           CLEAR     20   8  60 CALM      30.53S
DETROIT CITY   CLEAR     25  17  72 E5        30.57R WCI  19
DETROIT        MOCLDY    28  17  63 CALM      30.56S
FLINT          CLEAR     24  10  55 E7        30.54S WCI  16
GROSSE ILE     CLEAR     26  16  65 E3        30.55S
HILLSDALE      PTCLDY    28  14  54 SE5       30.48F WCI  23
HOWELL         CLOUDY    26  11  53 E5        30.52S WCI  20

CITY           SKY/WX    TMP DP  RH WIND       PRES   REMARKS
JACKSON        CLEAR     27  11  51 E6        30.51S WCI  20
LAMBERTVILLE   CLEAR     29  16  58 SE3       30.55S
LANSING        CLOUDY    25   9  50 E5        30.53S WCI  19
LAPEER         FAIR      24  16  73 S5        30.54S WCI  18
MASON          CLOUDY    28  16  61 E3        30.51F
MONROE         CLEAR     28  18  67 SE5       30.55S WCI  23
MT. CLEMENS    PTCLDY    22  16  77 SE5       30.55S WCI  16
PONTIAC        CLEAR     27  15  61 SE7       30.52S WCI  19
PORT HOPE        N/A     21  14  74 S3        30.53S
PORT HURON     CLEAR     19  14  79 CALM      30.56S
TRI CITIES     CLEAR     26  11  52 S8        30.53F WCI  18
MIDLAND        FAIR      27  10  47 CALM      30.52S
TROY           CLEAR     28  15  58 E5        30.57S WCI  22
SAGINAW HB     CLEAR     25  10  54 S3        30.54S
$$
MIZ043>046-050>051-056>058-064>065-071>073-077>080-230400-
SOUTHWEST LOWER MICHIGAN

CITY           SKY/WX    TMP DP  RH WIND       PRES   REMARKS
BATTLE CREEK   PTCLDY    31  10  41 E5        30.50S WCI  26
BENTON HARBOR  CLEAR     26  17  68 CALM      30.50S
BIG RAPIDS     CLEAR     25  16  68 CALM      30.49S
COLDWATER      CLEAR     30  12  47 CALM      30.50S
FREMONT        FAIR      26  16  66 NE3       30.50S
HOLLAND        CLEAR     28  17  63 CALM      30.51S
GRAND RAPIDS   PTCLDY    28  10  46 SE6       30.50S WCI  22
IONIA          FAIR      25  13  59 E6        30.50F WCI  18
KALAMAZOO      CLOUDY    30  11  45 SE3       30.50F
LUDINGTON      CLEAR     22  18  85 CALM      30.51S
MARSHALL       PTCLDY    29  11  47 CALM      30.50S
MOUNT PLEASANT CLEAR     28  10  48 CALM      30.51S
MUSKEGON       MOCLDY    26  16  65 CALM      30.51S
SOUTH HAVEN    CLEAR     24  19  80 CALM      30.51R
$$
MIZ016>042-230400-
NORTHERN LOWER MICHIGAN

CITY           SKY/WX    TMP DP  RH WIND       PRES   REMARKS
ALPENA         CLEAR     21  13  71 S5        30.54R WCI  15
BEAVER ISLAND  CLEAR     19  13  79 CALM      30.51F
BELLAIRE       CLEAR     19  13  76 CALM      30.53S
CADILLAC       CLEAR     22   9  55 CALM      30.46S
CHARLEVOIX     CLEAR     18  13  82 CALM      30.55S
FRANKFORT      CLEAR     20  14  79 CALM      30.52S
GAYLORD        CLEAR     22   9  57 CALM      30.48R
GRAYLING       CLEAR     18  11  72 CALM      30.50R
HARBOR SPRINGS CLEAR     19  15  84 CALM      30.53R
HOUGHTON LAKE  CLEAR     24  10  55 CALM      30.49R
MANISTEE       CLEAR     19  16  88 CALM      30.52S
OSCODA         CLEAR     16  10  75 CALM      30.53S
PELLSTON       CLEAR     18   9  68 CALM      30.52S
ROGERS CITY    CLEAR     22  12  64 SW3       30.54R
TRAVERSE CITY  CLEAR     21  11  65 CALM      30.51F
$$
MIZ007>008-015-230400-
EASTERN UPPER MICHIGAN

CITY           SKY/WX    TMP DP  RH WIND       PRES   REMARKS
KINROSS        CLEAR     17  10  74 CALM      30.51F
MACKINAC ISLAN CLEAR     20  16  81 SW5       30.51S WCI  14
NEWBERRY       CLEAR     21  14  73 CALM      30.49F
S. S. MARIE    CLEAR     18   8  65 S5        30.51R WCI  11
MUNISING         N/A     25  12  58 S9        30.48S WCI  15
$$
MIZ004>006-011>014-085-230400-
CENTRAL UPPER MICHIGAN

CITY           SKY/WX    TMP DP  RH WIND       PRES   REMARKS
MANISTIQUE     CLEAR     25  12  58 S5        30.50S WCI  19
ESCANABA       CLEAR     25  18  74 S5        30.50S WCI  19
MENOMINEE        N/A    N/A N/A N/A MISG        N/A
SAWYER-GWINN   CLEAR     23  15  70 S8        30.44S WCI  14
$$
MIZ001>003-009>011-084-230400-
WESTERN UPPER MICHIGAN

CITY           SKY/WX    TMP DP  RH WIND       PRES   REMARKS
IRON MOUNTAIN  CLEAR     24  12  60 SE6       30.43S WCI  17
HOUGHTON       CLEAR     23  15  71 E7        30.41F WCI  15
COPPER HARBOR    N/A     20  15  81 SW6       30.44F WCI  12
IRONWOOD       CLEAR     30   9  41 S5        30.37S WCI  25
$$

ABBREVIATIONS USED IN REMARKS
   TC - TEMPERATURE IN CELSIUS
  WCI - WIND CHILL INDEX
   HX - HEAT INDEX
  VSB - VISIBILITY





USA.gov is the U.S. government's official web portal to all federal, state and local government web resources and services.